Regional Weather Roundup
Issued by NWS

Home | Current Version | Previous Version | Graphics & Text | Print | Product List | Glossary Off
Versions: 1 2 3 4 5 6 7 8 9 10 11 12 13 14 15 16 17 18 19 20 21 22 23 24 25 26 27 28 29 30 31 32 33 34 35 36 37 38 39 40 41 42 43 44 45 46 47 48 49 50

000
ASUS43 KMKX 062000
RWRWI

WISCONSIN REGIONAL WEATHER ROUNDUP
NATIONAL WEATHER SERVICE MILWAUKEE/SULLIVAN WI
300 PM CDT WED MAY 06 2015

NOTE: "FAIR" INDICATES FEW OR NO CLOUDS BELOW 12,000 FEET WITH NO
SIGNIFICANT WEATHER AND/OR OBSTRUCTIONS TO VISIBILITY.

WIZ001-002-006>008-014>016-023>028-062100-
NORTHWEST WISCONSIN

CITY           SKY/WX    TMP DP  RH WIND       PRES   REMARKS
SUPERIOR ARPT  CLOUDY    47  38  71 NE13G21   30.06F
ASHLAND        CLOUDY    61  55  81 NE12      30.07F
HAYWARD        CLOUDY    67  55  65 E9        30.04F
SIREN          CLOUDY    70  55  58 SE9       30.00F
CUMBERLAND     PTSUNNY   70  55  60 SE15      30.02F
RICE LAKE      PTSUNNY   69  56  63 SE13      30.04F
CHETEK         PTSUNNY   69  59  69 E8        30.04F
LADYSMITH      CLOUDY    66  58  74 SE10      30.08F
EAU CLAIRE     MOSUNNY   75  59  57 SE15G21   30.01F
MENOMONIE      PTSUNNY   70  59  69 E9G16     30.02F
NEW RICHMOND   CLOUDY    70  57  63 E12G17    29.99F
OSCEOLA        CLOUDY    70  60  70 SE13      30.01F
$$

WIZ003>005-009-010-017-018-062100-
NORTH CENTRAL WISCONSIN

CITY           SKY/WX    TMP DP  RH WIND       PRES   REMARKS
MANITOWISH WTR CLOUDY    62  58  84 SE5       30.12F
ARBOR VITAE    CLOUDY    64  56  75 SE6       30.12F
WOODRUFF       CLOUDY    64  56  75 SE6       30.12F
RHINELANDER    CLOUDY    65  56  72 SE9       30.13F
EAGLE RIVER    PTSUNNY   65  53  64 S5        30.13S
LAND O LAKES   PTSUNNY   68  53  58 S9        30.14F
PHILLIPS       CLOUDY    63  57  81 SE9       30.10F
TOMAHAWK       CLOUDY    63  57  81 CALM      30.14S
MEDFORD        CLOUDY    65  57  73 E8        30.10F
MERRILL        CLOUDY    65  58  78 SE8       30.13S
$$

WIZ029-030-035-036-043>047-062100-
CENTRAL WISCONSIN

CITY           SKY/WX    TMP DP  RH WIND       PRES   REMARKS
WAUSAU         CLOUDY    68  56  65 SE9       30.09F
MOSINEE        SUNNY     70  57  64 E12G17    30.11F
MARSHFIELD     PTSUNNY   73  57  57 SE14      30.08F
STEVENS POINT  PTSUNNY   68  56  64 E13       30.11F
WAUPACA        PTSUNNY   68  57  68 E7        30.13F
WAUTOMA        NOT AVBL
WISC RAPIDS    PTSUNNY   75  56  51 S6        30.09F
CAMP DOUGLAS   NOT AVBL
$$

WIZ011>013-019>022-031-037>040-048>050-062100-
NORTHEAST WISCONSIN

CITY           SKY/WX    TMP DP  RH WIND       PRES   REMARKS
ANTIGO         CLOUDY    63  57  81 SE12      30.15F
SHAWANO        PTSUNNY   66  57  71 E6        30.16F
OCONTO           N/A    N/A N/A N/A MISG        N/A
STURGEON BAY   MOSUNNY   57  46  67 E9        30.20F
GREEN BAY      MOSUNNY   71  57  61 E7        30.14F
MANITOWOC      NOT AVBL
APPLETON       NOT AVBL
CLINTONVILLE   DRIZZLE   68  54  60 SE9       30.14F
OSHKOSH        PTSUNNY   63  56  78 E13       30.13F
$$

WIZ032>034-041-042-053>061-062100-
SOUTHWEST WISCONSIN

CITY           SKY/WX    TMP DP  RH WIND       PRES   REMARKS
LA CROSSE      PTSUNNY   78  59  51 SE14      30.00F
SPARTA         MOSUNNY   75  58  55 E9        30.05F
VIROQUA        PTSUNNY   73  60  62 E13       30.05F
BOSCOBEL       MOSUNNY   80  61  52 VRB6      30.03F HX  81
PRAIRIE DU CHI MOSUNNY   77  59  53 SE12G18   30.01F
PLATTEVILLE    SUNNY     76  64  66 SE12G17   30.06F
$$

WIZ056-057-062-063-064-067-068-062100-
SOUTH CENTRAL WISCONSIN

CITY           SKY/WX    TMP DP  RH WIND       PRES   REMARKS
REEDSBURG      MOSUNNY   73  63  69 SE8       30.07F
BARABOO/DELLS  NOT AVBL
LONE ROCK      NOT AVBL
MINERAL POINT  MOSUNNY   75  63  64 SE10      30.07F
MADISON        PTSUNNY   73  61  65 E12       30.09F
MIDDLETON      MOSUNNY   73  60  63 E10       30.10F
WATERTOWN      MOSUNNY   70  64  80 E8        30.11F
MONROE         MOSUNNY   73  63  68 SE8       30.09F
JANESVILLE     PTSUNNY   79  61  53 SE9       30.09F HX  80
$$

WIZ051-052-058>065-066-070>072-062100-
SOUTHEAST WISCONSIN

CITY           SKY/WX    TMP DP  RH WIND       PRES   REMARKS
MILWAUKEE      PTSUNNY   55  50  83 E8        30.15F HAZE
WAUKESHA       MOSUNNY   63  54  72 E8        30.15F
MILWAUKEE/TIMM SUNNY     57  50  77 NE7       30.17F
RACINE         CLOUDY    55  50  83 E7        30.17F HAZE
BURLINGTON     MOSUNNY   66  58  76 E9        30.13F
KENOSHA        PTSUNNY   57  53  86 E12       30.15F
FOND DU LAC    PTSUNNY   63  57  81 SE8       30.14F
SHEBOYGAN      PTSUNNY   58  53  84 S6        30.17S
WEST BEND      PTSUNNY   63  52  67 E7        30.16F
JUNEAU         PTSUNNY   66  60  79 E7        30.14F
$$

LSZ147-162-062100-
LAKE SUPERIOR

STATION/POSITION TIME  TEMP    WIND        PRES    WAVE
                       AIR SEA DIR/SP/G            HT/PER
                 (UTC) (F)     (DEG/KT/KT) (MB)    (FT/S)
W MID LAKE BUOY  1850   40 36   60/  8/  8 1020.8F   0
DEVILS ISLAND    1900   44      70/  7/  9 1019.9F
PORT WING        1940   42      30/ 17/ 19 1017.9F
SAXON HARBOR     1900          330/  3/ 18 1018.6
$$

LMZ867-665-643>646-062100-
LAKE MICHIGAN

STATION/POSITION TIME  TEMP    WIND        PRES    WAVE
                       AIR SEA DIR/SP/G            HT/PER
                 (UTC) (F)     (DEG/KT/KT) (MB)    (FT/S)
CHAMBERS ISLAND  1900   54     360/  6/  6 1022.7S
NORTHPORT PIER   1900   47     160/  4/  7 1022.7F
SISTER BAY       1747   60     170/  9/ 11   N/A
KEWAUNEE LAKESHO 1900           50/  2/  5   N/A
SHEBOYGAN LAKESH 1900   49     150/  6/  7 1022.7F
PORT WASHINGTON  1900   48      80/  2/  3 1023.0
ATWATER BUOY     1900   44      10/  8/  8 1023.2F
MILWAUKEE LAKESH 1900   46      40/  7/  8   N/A
KENOSHA   LAKESH 1900   45      30/  4/  5 1021.7F
$$

TC  - TEMPERATURE IN CELSIUS
VSB - VISIBILITY IN STATUTE MILES
WCI - WIND CHILL INDEX
HX  - HEAT INDEX




USA.gov is the U.S. government's official web portal to all federal, state and local government web resources and services.